Showing default

KUIPER-00434, 68938

Orbit data source: Space-Track

KUIPER-00434, 68938 is a payload satellite owned by Kuiper Systems (US) in LEO that was launched on Thu, 30 Apr 2026 UTC via an ARIANE 64 launch vehicle from the French Guiana (FRGUI). Payload-class satellites include a variety of spacecraft equipped with specific instruments for various scientific and technological missions. These include communications satellites like Starlink; space stations such as the ISS; scientific satellites like the Hubble; Earth observation satellites from companies like Planet Labs, Umbra, and HawkEye 360; GPS; miniature CubeSats for education and research; and military/defense satellites.

Loading next visibility...
Identifier
68938, 2026-098V
Orbit
LEO
Country
Flag of USUS
Related business
Manufacturer
Kuiper Systems
Mission
Operational spacecraft
Bus & Motor
KUIPER, Unknown motor
Mass
~490 kg wet, ~490 kg dry
Launch date (UTC)
2026-04-30 (2 months ago)
Launch vehicle
ARIANE 64
Launch site
French Guiana (FRGUI)
Object type
Payload
Rocket body
Debris
Shape & HBR
Unknown shape, 3.4 m
Radar Cross Section
Large (>1 m²)

Expand to show TLE details & history
Last TLE update: 13 hours ago

TLE from 13 hours ago
0 KUIPER-00434
1 68938U 26098V   26171.37863021 -.00005009  00000-0 -14654-3 0  9995
2 68938  51.8739  52.6250 0006665 141.7706 218.3752 15.32289452  7835
Epoch: 2026-06-20T09:05Z
TLE epoch observation values (Epoch: 2026-06-20T09:05:13.650Z)
Latitude
-0.00002°
Longitude
7.724°
Altitude
473.323 km
Speed
7.629 km/s
True Right ascension
03h 30m 29s
True Declination
0° 00' 00"
Sunlit
Object was in daylight at epoch
Visualization orbit readout
Latitude
Unknown
Longitude
Unknown
Altitude
Unknown
Speed
Unknown
Apparent Right ascension
Unknown
Apparent Declination
Unknown
Sunlit
N/A
Visualization observer readout
Local Sidereal Time
08:42:04
Azimuth
Unknown
Elevation
Unknown
Doppler factor
Unknown
Orbital elements
Apogee altitude
474.013 km
Perigee altitude
464.885 km
Semi-major axis
6,847.586 km
Eccentricity
0.00067
Inclination
51.8739°
RAAN
52.625°
Arg. of periapsis
141.7706°
True anomaly
218.32782°
Mean anomaly
218.3752°
Eccentric anomaly
218.35151°
Mean motion
3.83034 °/min
Orbital period
93.99 mins
BSTAR
-0.00014654
Loading maneuver chart data...
Computing Atmospheric mass density...
Loading historical data...
Loading historical data...
Loading historical data...
Loading historical data...
Loading historical data...
Loading historical data...
Loading historical data...

Documentation

Showing up to 5 results
|